| time (UTC) | temp F | wind direction | speed MPH | gust MPH | rain 1hr in | rain 24hr in | rain mn in | humidity % | barometer mb |
| 20260905050518 | 71 | 237 | 0.0 | 1.0 | 0.00 | 0.00 | 0.00 | 46 | 1018.2 |
| 20260905050019 | 71 | 237 | 1.0 | 2.0 | 0.00 | 0.00 | 0.00 | 46 | 1018.2 |
| 20260905045020 | 70 | 237 | 1.0 | 3.0 | 0.00 | 0.00 | 0.00 | 47 | 1018.1 |
| 20260905044510 | 69 | 237 | 2.0 | 3.0 | 0.00 | 0.00 | 0.00 | 47 | 1018.2 |
| 20260905044019 | 69 | 237 | 0.0 | 1.0 | 0.00 | 0.00 | 0.00 | 48 | 1018.2 |
| 20260905043517 | 69 | 237 | 1.0 | 3.0 | 0.00 | 0.00 | 0.00 | 47 | 1018.1 |
| 20260905043018 | 69 | 237 | 1.0 | 3.0 | 0.00 | 0.00 | 0.00 | 49 | 1018.1 |
| 20260905042512 | 69 | 237 | 1.0 | 2.0 | 0.00 | 0.00 | 0.00 | 50 | 1018.1 |
| 20260905042020 | 68 | 237 | 0.0 | 1.0 | 0.00 | 0.00 | 0.00 | 51 | 1017.9 |
| 20260905041019 | 69 | 237 | 1.0 | 2.0 | 0.00 | 0.00 | 0.00 | 50 | 1018.0 |
| 20260905040520 | 69 | 237 | 1.0 | 2.0 | 0.00 | 0.00 | 0.00 | 50 | 1018.0 |
| 20260905040020 | 69 | 237 | 0.0 | 1.0 | 0.00 | 0.00 | 0.00 | 50 | 1017.9 |
| 20260905035518 | 69 | 237 | 0.0 | 1.0 | 0.00 | 0.00 | 0.00 | 50 | 1017.9 |
| 20260905035012 | 69 | 237 | 1.0 | 2.0 | 0.00 | 0.00 | 0.00 | 50 | 1017.9 |
| 20260905034520 | 70 | 237 | 1.0 | 2.0 | 0.00 | 0.00 | 0.00 | 49 | 1018.0 |
| 20260905034020 | 70 | 237 | 1.0 | 2.0 | 0.00 | 0.00 | 0.00 | 48 | 1017.9 |
| 20260905033518 | 70 | 237 | 1.0 | 2.0 | 0.00 | 0.00 | 0.00 | 48 | 1017.9 |
| 20260905033020 | 70 | 237 | 1.0 | 2.0 | 0.00 | 0.00 | 0.00 | 48 | 1017.9 |
| 20260905032511 | 70 | 237 | 1.0 | 2.0 | 0.00 | 0.00 | 0.00 | 49 | 1017.8 |
| 20260905032021 | 69 | 237 | 1.0 | 3.0 | 0.00 | 0.00 | 0.00 | 50 | 1017.8 |
| 20260905031020 | 70 | 251 | 0.0 | 2.0 | 0.00 | 0.00 | 0.00 | 50 | 1017.7 |
| 20260905030020 | 73 | 251 | 1.0 | 2.0 | 0.00 | 0.00 | 0.00 | 45 | 1017.6 |
| 20260905025518 | 72 | 251 | 1.0 | 3.0 | 0.00 | 0.00 | 0.00 | 46 | 1017.6 |
| 20260905025019 | 70 | 251 | 0.0 | 2.0 | 0.00 | 0.00 | 0.00 | 51 | 1017.7 |
| 20260905024519 | 70 | 251 | 1.0 | 2.0 | 0.00 | 0.00 | 0.00 | 52 | 1017.8 |
| 20260905024019 | 70 | 251 | 1.0 | 2.0 | 0.00 | 0.00 | 0.00 | 53 | 1017.7 |
| 20260905023518 | 71 | 251 | 1.0 | 2.0 | 0.00 | 0.00 | 0.00 | 52 | 1017.8 |
| 20260905023019 | 72 | 251 | 0.0 | 1.0 | 0.00 | 0.00 | 0.00 | 48 | 1017.8 |
| 20260905022517 | 71 | 251 | 1.0 | 3.0 | 0.00 | 0.00 | 0.00 | 50 | 1017.8 |
| 20260905022019 | 70 | 251 | 1.0 | 1.0 | 0.00 | 0.00 | 0.00 | 55 | 1017.8 |
| 20260905021020 | 71 | 251 | 0.0 | 1.0 | 0.00 | 0.00 | 0.00 | 53 | 1017.8 |
| 20260905020518 | 70 | 251 | 0.0 | 1.0 | 0.00 | 0.00 | 0.00 | 55 | 1017.8 |
| 20260905020020 | 69 | 251 | 1.0 | 1.0 | 0.00 | 0.00 | 0.00 | 56 | 1017.9 |
| 20260905015512 | 70 | 251 | 0.0 | 1.0 | 0.00 | 0.00 | 0.00 | 56 | 1017.9 |
| 20260905015020 | 70 | 251 | 0.0 | 2.0 | 0.00 | 0.00 | 0.00 | 56 | 1018.0 |
| 20260905014519 | 69 | 251 | 0.0 | 2.0 | 0.00 | 0.00 | 0.00 | 57 | 1018.0 |
| 20260905014026 | 69 | 251 | 1.0 | 1.0 | 0.00 | 0.00 | 0.00 | 58 | 1018.0 |
| 20260905013510 | 70 | 251 | 1.0 | 1.0 | 0.00 | 0.00 | 0.00 | 57 | 1018.0 |
| 20260905013020 | 70 | 251 | 0.0 | 2.0 | 0.00 | 0.00 | 0.00 | 57 | 1018.0 |
| 20260905012516 | 69 | 251 | 1.0 | 2.0 | 0.00 | 0.00 | 0.00 | 59 | 1018.1 |
| 20260905012019 | 70 | 251 | 1.0 | 2.0 | 0.00 | 0.00 | 0.00 | 59 | 1018.1 |
| 20260905011020 | 71 | 251 | 1.0 | 2.0 | 0.00 | 0.00 | 0.00 | 58 | 1018.1 |
| 20260905010519 | 70 | 251 | 0.0 | 2.0 | 0.00 | 0.00 | 0.00 | 60 | 1018.1 |
| 20260905010020 | 70 | 251 | 0.0 | 1.0 | 0.00 | 0.00 | 0.00 | 60 | 1018.1 |
| 20260905005518 | 70 | 251 | 1.0 | 1.0 | 0.00 | 0.00 | 0.00 | 60 | 1018.1 |
| 20260905005019 | 69 | 251 | 0.0 | 1.0 | 0.00 | 0.00 | 0.00 | 62 | 1018.1 |
| 20260905004518 | 69 | 251 | 0.0 | 2.0 | 0.00 | 0.00 | 0.00 | 63 | 1018.1 |
| 20260905004019 | 69 | 251 | 1.0 | 2.0 | 0.00 | 0.00 | 0.00 | 63 | 1018.2 |
| 20260905003511 | 69 | 251 | 1.0 | 2.0 | 0.00 | 0.00 | 0.00 | 63 | 1018.2 |
| 20260905002511 | 69 | 251 | 1.0 | 2.0 | 0.00 | 0.00 | 0.00 | 63 | 1018.1 |
| 20260905002019 | 71 | 252 | 1.0 | 2.0 | 0.00 | 0.00 | 0.00 | 61 | 1018.1 |
| 20260905001519 | 70 | 254 | 1.0 | 2.0 | 0.00 | 0.00 | 0.00 | 63 | 1018.0 |
| 20260905001019 | 69 | 254 | 1.0 | 2.0 | 0.00 | 0.00 | 0.00 | 66 | 1018.0 |
| 20260905000020 | 70 | 254 | 1.0 | 1.0 | 0.00 | 0.00 | 0.00 | 66 | 1018.1 |
| 20260904235518 | 70 | 254 | 0.0 | 1.0 | 0.00 | 0.00 | 0.00 | 65 | 1018.1 |
| 20260904234518 | 70 | 254 | 0.0 | 1.0 | 0.00 | 0.00 | 0.00 | 67 | 1018.1 |
| 20260904234019 | 70 | 254 | 0.0 | 1.0 | 0.00 | 0.00 | 0.00 | 67 | 1018.3 |
| 20260904233517 | 69 | 254 | 0.0 | 1.0 | 0.00 | 0.00 | 0.00 | 67 | 1018.3 |
| 20260904232518 | 70 | 254 | 1.0 | 2.0 | 0.00 | 0.00 | 0.00 | 66 | 1018.4 |
| 20260904231519 | 72 | 254 | 0.0 | 1.0 | 0.00 | 0.00 | 0.00 | 62 | 1018.3 |
| 20260904231019 | 72 | 254 | 0.0 | 1.0 | 0.00 | 0.00 | 0.00 | 63 | 1018.3 |
| 20260904230518 | 72 | 254 | 0.0 | 1.0 | 0.00 | 0.00 | 0.00 | 63 | 1018.3 |
| 20260904225518 | 71 | 254 | 0.0 | 1.0 | 0.00 | 0.00 | 0.00 | 64 | 1018.4 |
| 20260904225019 | 71 | 254 | 0.0 | 1.0 | 0.00 | 0.00 | 0.00 | 65 | 1018.3 |
| 20260904224519 | 71 | 254 | 0.0 | 1.0 | 0.00 | 0.00 | 0.00 | 65 | 1018.4 |
| 20260904223518 | 71 | 254 | 0.0 | 1.0 | 0.00 | 0.00 | 0.00 | 64 | 1018.4 |
| 20260904223020 | 72 | 254 | 1.0 | 2.0 | 0.00 | 0.00 | 0.00 | 63 | 1018.5 |
| 20260904222518 | 73 | 254 | 0.0 | 1.0 | 0.00 | 0.00 | 0.00 | 61 | 1018.5 |
| 20260904222019 | 73 | 254 | 1.0 | 2.0 | 0.00 | 0.00 | 0.00 | 61 | 1018.5 |
| 20260904220517 | 73 | 256 | 0.0 | 2.0 | 0.00 | 0.00 | 0.00 | 62 | 1018.6 |
| 20260904220022 | 73 | 256 | 0.0 | 1.0 | 0.00 | 0.00 | 0.00 | 63 | 1018.6 |
| 20260904215518 | 73 | 256 | 0.0 | 1.0 | 0.00 | 0.00 | 0.00 | 63 | 1018.6 |
| 20260904214518 | 74 | 256 | 0.0 | 2.0 | 0.00 | 0.00 | 0.00 | 63 | 1018.6 |
| 20260904213518 | 74 | 327 | 0.0 | 2.0 | 0.00 | 0.00 | 0.00 | 63 | 1018.5 |
| 20260904213021 | 74 | 317 | 1.0 | 2.0 | 0.00 | 0.00 | 0.00 | 64 | 1018.5 |
| 20260904212512 | 74 | 300 | 0.0 | 1.0 | 0.00 | 0.00 | 0.00 | 64 | 1018.6 |
| 20260904212018 | 74 | 299 | 0.0 | 1.0 | 0.00 | 0.00 | 0.00 | 64 | 1018.6 |
| 20260904211019 | 74 | 299 | 0.0 | 0.0 | 0.00 | 0.00 | 0.00 | 63 | 1018.6 |
| 20260904210517 | 74 | 297 | 0.0 | 2.0 | 0.00 | 0.00 | 0.00 | 63 | 1018.6 |
| 20260904210013 | 74 | 273 | 1.0 | 3.0 | 0.00 | 0.00 | 0.00 | 64 | 1018.6 |
| 20260904205518 | 74 | 322 | 0.0 | 3.0 | 0.00 | 0.00 | 0.00 | 65 | 1018.7 |
| 20260904205019 | 74 | 311 | 1.0 | 3.0 | 0.00 | 0.00 | 0.00 | 67 | 1018.6 |
| 20260904204019 | 75 | 254 | 0.0 | 0.0 | 0.00 | 0.00 | 0.00 | 68 | 1018.6 |
| 20260904203518 | 75 | 254 | 0.0 | 1.0 | 0.00 | 0.00 | 0.00 | 67 | 1018.7 |
| 20260904203020 | 76 | 254 | 0.0 | 1.0 | 0.00 | 0.00 | 0.00 | 66 | 1018.6 |
| 20260904202518 | 76 | 47 | 0.0 | 1.0 | 0.00 | 0.00 | 0.00 | 64 | 1018.6 |
| 20260904202018 | 76 | 330 | 0.0 | 1.0 | 0.00 | 0.00 | 0.00 | 64 | 1018.6 |
| 20260904201020 | 76 | 49 | 0.0 | 2.0 | 0.00 | 0.00 | 0.00 | 66 | 1018.7 |
| 20260904200519 | 75 | 45 | 0.0 | 2.0 | 0.00 | 0.00 | 0.00 | 69 | 1018.7 |
| 20260904200012 | 75 | 355 | 0.0 | 3.0 | 0.00 | 0.00 | 0.00 | 70 | 1018.8 |
| 20260904195518 | 75 | 254 | 0.0 | 3.0 | 0.00 | 0.00 | 0.00 | 70 | 1018.8 |
| 20260904195019 | 76 | 265 | 0.0 | 2.0 | 0.00 | 0.00 | 0.00 | 69 | 1018.7 |
| 20260904194520 | 76 | 25 | 0.0 | 1.0 | 0.00 | 0.00 | 0.00 | 68 | 1018.7 |
| 20260904194012 | 77 | 56 | 0.0 | 2.0 | 0.00 | 0.00 | 0.00 | 70 | 1018.7 |
| 20260904193518 | 77 | 56 | 1.0 | 2.0 | 0.00 | 0.00 | 0.00 | 70 | 1018.7 |
| 20260904193019 | 77 | 72 | 0.0 | 1.0 | 0.00 | 0.00 | 0.00 | 69 | 1018.7 |
| 20260904192511 | 78 | 72 | 0.0 | 2.0 | 0.00 | 0.00 | 0.00 | 68 | 1018.7 |
| 20260904192019 | 78 | 43 | 1.0 | 2.0 | 0.00 | 0.00 | 0.00 | 69 | 1018.7 |
| 20260904191518 | 78 | 54 | 1.0 | 3.0 | 0.00 | 0.00 | 0.00 | 69 | 1018.6 |
| 20260904191019 | 78 | 55 | 1.0 | 3.0 | 0.00 | 0.00 | 0.00 | 69 | 1018.6 |
| 20260904190519 | 78 | 270 | 1.0 | 2.0 | 0.00 | 0.00 | 0.00 | 69 | 1018.6 |
| 20260904185519 | 78 | 263 | 0.0 | 2.0 | 0.00 | 0.00 | 0.00 | 68 | 1018.6 |
| 20260904184519 | 79 | 291 | 0.0 | 2.0 | 0.00 | 0.00 | 0.00 | 67 | 1018.5 |
| 20260904184019 | 79 | 337 | 1.0 | 3.0 | 0.00 | 0.00 | 0.00 | 67 | 1018.5 |
| 20260904183518 | 79 | 44 | 2.0 | 3.0 | 0.00 | 0.00 | 0.00 | 66 | 1018.4 |
| 20260904183019 | 79 | 51 | 2.0 | 5.0 | 0.00 | 0.00 | 0.00 | 67 | 1018.4 |
| 20260904182018 | 79 | 47 | 4.0 | 7.0 | 0.00 | 0.00 | 0.00 | 66 | 1018.2 |
| 20260904181517 | 79 | 52 | 3.0 | 6.0 | 0.00 | 0.00 | 0.00 | 67 | 1018.2 |
| 20260904181019 | 79 | 38 | 3.0 | 7.0 | 0.00 | 0.00 | 0.00 | 66 | 1018.1 |
| 20260904180518 | 80 | 40 | 3.0 | 7.0 | 0.00 | 0.00 | 0.00 | 66 | 1018.1 |
| 20260904180020 | 80 | 46 | 2.0 | 6.0 | 0.00 | 0.00 | 0.00 | 65 | 1018.1 |
| 20260904175519 | 80 | 46 | 5.0 | 7.0 | 0.00 | 0.00 | 0.00 | 64 | 1018.0 |
| 20260904175019 | 80 | 44 | 4.0 | 8.0 | 0.00 | 0.00 | 0.00 | 63 | 1017.9 |
| 20260904174517 | 80 | 45 | 4.0 | 6.0 | 0.00 | 0.00 | 0.00 | 62 | 1017.8 |
| 20260904174018 | 81 | 45 | 2.0 | 5.0 | 0.00 | 0.00 | 0.00 | 61 | 1017.8 |
| 20260904173518 | 81 | 49 | 1.0 | 3.0 | 0.00 | 0.00 | 0.00 | 59 | 1017.8 |
| 20260904172519 | 82 | 49 | 2.0 | 7.0 | 0.00 | 0.00 | 0.00 | 56 | 1017.8 |
| 20260904172018 | 82 | 45 | 3.0 | 7.0 | 0.00 | 0.00 | 0.00 | 54 | 1017.8 |
| 20260904171518 | 82 | 61 | 3.0 | 8.0 | 0.00 | 0.00 | 0.00 | 53 | 1017.7 |
| 20260904170515 | 83 | 50 | 3.0 | 5.0 | 0.00 | 0.00 | 0.00 | 53 | 1017.6 |
| 20260904170019 | 83 | 44 | 2.0 | 6.0 | 0.00 | 0.00 | 0.00 | 54 | 1017.6 |
| 20260904165020 | 83 | 45 | 4.0 | 8.0 | 0.00 | 0.00 | 0.00 | 52 | 1017.5 |
| 20260904164512 | 84 | 50 | 7.0 | 10.0 | 0.00 | 0.00 | 0.00 | 51 | 1017.5 |
| 20260904164013 | 84 | 42 | 5.0 | 8.0 | 0.00 | 0.00 | 0.00 | 49 | 1017.5 |
| 20260904163518 | 84 | 55 | 4.0 | 9.0 | 0.00 | 0.00 | 0.00 | 48 | 1017.5 |
| 20260904163019 | 84 | 45 | 6.0 | 10.0 | 0.00 | 0.00 | 0.00 | 48 | 1017.6 |
| 20260904162510 | 85 | 38 | 9.0 | 12.0 | 0.00 | 0.00 | 0.00 | 47 | 1017.5 |
| 20260904161020 | 86 | 41 | 5.0 | 12.0 | 0.00 | 0.00 | 0.00 | 41 | 1017.5 |
| 20260904160510 | 86 | 45 | 6.0 | 13.0 | 0.00 | 0.00 | 0.00 | 37 | 1017.6 |
| 20260904160020 | 86 | 47 | 5.0 | 12.0 | 0.00 | 0.00 | 0.00 | 36 | 1017.5 |
| 20260904155510 | 87 | 47 | 7.0 | 12.0 | 0.00 | 0.00 | 0.00 | 35 | 1017.5 |
| 20260904155011 | 87 | 50 | 6.0 | 13.0 | 0.00 | 0.00 | 0.00 | 34 | 1017.5 |
| 20260904154510 | 87 | 42 | 7.0 | 13.0 | 0.00 | 0.00 | 0.00 | 32 | 1017.5 |
| 20260904153510 | 88 | 41 | 5.0 | 9.0 | 0.00 | 0.00 | 0.00 | 31 | 1017.5 |
| 20260904153019 | 88 | 51 | 5.0 | 8.0 | 0.00 | 0.00 | 0.00 | 32 | 1017.5 |
| 20260904152510 | 88 | 42 | 6.0 | 10.0 | 0.00 | 0.00 | 0.00 | 31 | 1017.5 |
| 20260904152017 | 88 | 45 | 5.0 | 10.0 | 0.00 | 0.00 | 0.00 | 31 | 1017.4 |
| 20260904151021 | 89 | 47 | 6.0 | 12.0 | 0.00 | 0.00 | 0.00 | 31 | 1017.5 |
| 20260904150510 | 88 | 40 | 6.0 | 15.0 | 0.00 | 0.00 | 0.00 | 32 | 1017.5 |
| 20260904150018 | 89 | 51 | 4.0 | 13.0 | 0.00 | 0.00 | 0.00 | 33 | 1017.5 |
| 20260904145510 | 88 | 36 | 4.0 | 9.0 | 0.00 | 0.00 | 0.00 | 33 | 1017.5 |
| 20260904144512 | 88 | 39 | 5.0 | 9.0 | 0.00 | 0.00 | 0.00 | 35 | 1017.4 |
| 20260904144012 | 88 | 45 | 7.0 | 12.0 | 0.00 | 0.00 | 0.00 | 35 | 1017.5 |
| 20260904143519 | 89 | 48 | 5.0 | 9.0 | 0.00 | 0.00 | 0.00 | 36 | 1017.4 |
| 20260904143019 | 88 | 30 | 2.0 | 12.0 | 0.00 | 0.00 | 0.00 | 38 | 1017.5 |
| 20260904142511 | 88 | 47 | 6.0 | 12.0 | 0.00 | 0.00 | 0.00 | 36 | 1017.5 |
| 20260904142013 | 88 | 47 | 6.0 | 10.0 | 0.00 | 0.00 | 0.00 | 37 | 1017.5 |
| 20260904141511 | 88 | 28 | 5.0 | 12.0 | 0.00 | 0.00 | 0.00 | 38 | 1017.5 |
| 20260904141018 | 89 | 43 | 6.0 | 9.0 | 0.00 | 0.00 | 0.00 | 37 | 1017.6 |
| 20260904140012 | 88 | 50 | 7.0 | 16.0 | 0.00 | 0.00 | 0.00 | 38 | 1017.5 |
| 20260904135510 | 88 | 45 | 3.0 | 13.0 | 0.00 | 0.00 | 0.00 | 39 | 1017.5 |
| 20260904135016 | 88 | 46 | 6.0 | 13.0 | 0.00 | 0.00 | 0.00 | 39 | 1017.5 |
| 20260904134511 | 88 | 44 | 7.0 | 12.0 | 0.00 | 0.00 | 0.00 | 39 | 1017.6 |
| 20260904134019 | 88 | 58 | 8.0 | 15.0 | 0.00 | 0.00 | 0.00 | 40 | 1017.5 |
| 20260904133510 | 88 | 40 | 8.0 | 13.0 | 0.00 | 0.00 | 0.00 | 40 | 1017.6 |
| 20260904133011 | 88 | 42 | 6.0 | 17.0 | 0.00 | 0.00 | 0.00 | 40 | 1017.5 |
| 20260904132019 | 89 | 39 | 6.0 | 12.0 | 0.00 | 0.00 | 0.00 | 41 | 1017.7 |
| 20260904131518 | 88 | 42 | 4.0 | 12.0 | 0.00 | 0.00 | 0.00 | 39 | 1017.8 |
| 20260904131013 | 88 | 45 | 9.0 | 14.0 | 0.00 | 0.00 | 0.00 | 41 | 1017.8 |
| 20260904130511 | 88 | 39 | 6.0 | 12.0 | 0.00 | 0.00 | 0.00 | 42 | 1017.9 |
| 20260904130019 | 88 | 44 | 6.0 | 12.0 | 0.00 | 0.00 | 0.00 | 44 | 1017.8 |
| 20260904125018 | 88 | 52 | 6.0 | 15.0 | 0.00 | 0.00 | 0.00 | 39 | 1017.9 |
| 20260904124518 | 88 | 47 | 5.0 | 15.0 | 0.00 | 0.00 | 0.00 | 42 | 1017.9 |
| 20260904122018 | 88 | 43 | 6.0 | 12.0 | 0.00 | 0.00 | 0.00 | 50 | 1018.1 |
| 20260904121518 | 88 | 43 | 3.0 | 12.0 | 0.00 | 0.00 | 0.00 | 48 | 1018.1 |
| 20260904121018 | 88 | 41 | 6.0 | 12.0 | 0.00 | 0.00 | 0.00 | 47 | 1018.1 |
| 20260904120517 | 88 | 41 | 6.0 | 10.0 | 0.00 | 0.00 | 0.00 | 50 | 1018.2 |
| 20260904120020 | 88 | 47 | 5.0 | 12.0 | 0.00 | 0.00 | 0.00 | 51 | 1018.2 |
| 20260904115519 | 87 | 35 | 7.0 | 13.0 | 0.00 | 0.00 | 0.00 | 51 | 1018.3 |
| 20260904114519 | 87 | 51 | 3.0 | 10.0 | 0.00 | 0.00 | 0.00 | 55 | 1018.3 |
| 20260904114011 | 87 | 38 | 6.0 | 13.0 | 0.00 | 0.00 | 0.00 | 53 | 1018.4 |
| 20260904113517 | 87 | 47 | 7.0 | 13.0 | 0.00 | 0.00 | 0.00 | 55 | 1018.5 |
| 20260904113018 | 86 | 44 | 5.0 | 9.0 | 0.00 | 0.00 | 0.00 | 56 | 1018.5 |
| 20260904112509 | 86 | 56 | 5.0 | 12.0 | 0.00 | 0.00 | 0.00 | 55 | 1018.6 |
| 20260904112018 | 88 | 49 | 3.0 | 12.0 | 0.00 | 0.00 | 0.00 | 55 | 1018.5 |
| 20260904111013 | 87 | 46 | 5.0 | 14.0 | 0.00 | 0.00 | 0.00 | 55 | 1018.4 |
| 20260904110517 | 87 | 45 | 4.0 | 12.0 | 0.00 | 0.00 | 0.00 | 54 | 1018.5 |
| 20260904110020 | 87 | 44 | 5.0 | 12.0 | 0.00 | 0.00 | 0.00 | 55 | 1018.5 |
| 20260904105511 | 87 | 43 | 7.0 | 12.0 | 0.00 | 0.00 | 0.00 | 55 | 1018.4 |
| 20260904105019 | 87 | 31 | 7.0 | 14.0 | 0.00 | 0.00 | 0.00 | 53 | 1018.4 |
| 20260904104518 | 87 | 56 | 5.0 | 10.0 | 0.00 | 0.00 | 0.00 | 54 | 1018.4 |
| 20260904104020 | 86 | 37 | 7.0 | 12.0 | 0.00 | 0.00 | 0.00 | 55 | 1018.4 |
| 20260904103518 | 86 | 39 | 7.0 | 13.0 | 0.00 | 0.00 | 0.00 | 54 | 1018.5 |
| 20260904102517 | 86 | 42 | 7.0 | 14.0 | 0.00 | 0.00 | 0.00 | 57 | 1018.5 |
| 20260904102018 | 86 | 36 | 6.0 | 16.0 | 0.00 | 0.00 | 0.00 | 56 | 1018.5 |
| 20260904101518 | 86 | 47 | 7.0 | 17.0 | 0.00 | 0.00 | 0.00 | 56 | 1018.5 |
| 20260904101020 | 86 | 48 | 6.0 | 14.0 | 0.00 | 0.00 | 0.00 | 56 | 1018.5 |
| 20260904100518 | 86 | 44 | 6.0 | 12.0 | 0.00 | 0.00 | 0.00 | 55 | 1018.5 |
| 20260904100019 | 86 | 42 | 6.0 | 13.0 | 0.00 | 0.00 | 0.00 | 57 | 1018.5 |
| 20260904095018 | 85 | 34 | 7.0 | 14.0 | 0.00 | 0.00 | 0.00 | 59 | 1018.5 |
| 20260904094518 | 85 | 36 | 6.0 | 15.0 | 0.00 | 0.00 | 0.00 | 60 | 1018.5 |
| 20260904094016 | 85 | 49 | 6.0 | 20.0 | 0.00 | 0.00 | 0.00 | 59 | 1018.5 |
| 20260904093519 | 85 | 49 | 6.0 | 13.0 | 0.00 | 0.00 | 0.00 | 60 | 1018.5 |
| 20260904093019 | 85 | 46 | 6.0 | 12.0 | 0.00 | 0.00 | 0.00 | 59 | 1018.5 |
| 20260904091518 | 85 | 51 | 7.0 | 12.0 | 0.00 | 0.00 | 0.00 | 59 | 1018.5 |
| 20260904091011 | 85 | 50 | 7.0 | 12.0 | 0.00 | 0.00 | 0.00 | 60 | 1018.6 |
| 20260904090019 | 84 | 50 | 6.0 | 14.0 | 0.00 | 0.00 | 0.00 | 61 | 1018.5 |
| 20260904085018 | 85 | 39 | 5.0 | 12.0 | 0.00 | 0.00 | 0.00 | 59 | 1018.6 |
| 20260904084511 | 84 | 52 | 5.0 | 13.0 | 0.00 | 0.00 | 0.00 | 60 | 1018.6 |
| 20260904083518 | 84 | 47 | 7.0 | 12.0 | 0.00 | 0.00 | 0.00 | 61 | 1018.5 |
| 20260904083020 | 84 | 49 | 6.0 | 12.0 | 0.00 | 0.00 | 0.00 | 62 | 1018.4 |
| 20260904082517 | 83 | 51 | 7.0 | 18.0 | 0.00 | 0.00 | 0.00 | 62 | 1018.4 |
| 20260904081518 | 83 | 30 | 3.0 | 12.0 | 0.00 | 0.00 | 0.00 | 63 | 1018.3 |
| 20260904081018 | 83 | 44 | 6.0 | 12.0 | 0.00 | 0.00 | 0.00 | 64 | 1018.3 |
| 20260904080518 | 82 | 46 | 6.0 | 13.0 | 0.00 | 0.00 | 0.00 | 64 | 1018.3 |
| 20260904080019 | 82 | 53 | 5.0 | 13.0 | 0.00 | 0.00 | 0.00 | 65 | 1018.2 |
| 20260904075509 | 82 | 50 | 6.0 | 13.0 | 0.00 | 0.00 | 0.00 | 64 | 1018.1 |
| 20260904075018 | 82 | 43 | 5.0 | 12.0 | 0.00 | 0.00 | 0.00 | 64 | 1018.0 |
| 20260904074518 | 82 | 49 | 6.0 | 12.0 | 0.00 | 0.00 | 0.00 | 64 | 1018.0 |
| 20260904074018 | 82 | 56 | 6.0 | 10.0 | 0.00 | 0.00 | 0.00 | 64 | 1017.9 |
| 20260904073517 | 82 | 59 | 5.0 | 9.0 | 0.00 | 0.00 | 0.00 | 64 | 1017.9 |
| 20260904073018 | 81 | 50 | 5.0 | 10.0 | 0.00 | 0.00 | 0.00 | 65 | 1017.8 |
| 20260904072517 | 81 | 43 | 7.0 | 12.0 | 0.00 | 0.00 | 0.00 | 65 | 1017.8 |
| 20260904071518 | 81 | 43 | 5.0 | 8.0 | 0.00 | 0.00 | 0.00 | 64 | 1017.7 |
| 20260904071019 | 81 | 40 | 4.0 | 8.0 | 0.00 | 0.00 | 0.00 | 64 | 1017.6 |
| 20260904070010 | 81 | 30 | 3.0 | 7.0 | 0.00 | 0.00 | 0.00 | 64 | 1017.5 |
| 20260904065517 | 80 | 47 | 5.0 | 10.0 | 0.00 | 0.00 | 0.00 | 64 | 1017.4 |
| 20260904065019 | 81 | 33 | 3.0 | 8.0 | 0.00 | 0.00 | 0.00 | 64 | 1017.4 |
| 20260904064515 | 80 | 8 | 3.0 | 7.0 | 0.00 | 0.00 | 0.00 | 63 | 1017.3 |
| 20260904064014 | 80 | 12 | 2.0 | 3.0 | 0.00 | 0.00 | 0.00 | 64 | 1017.3 |
| 20260904063509 | 80 | 292 | 3.0 | 7.0 | 0.00 | 0.00 | 0.00 | 64 | 1017.3 |
| 20260904063017 | 80 | 48 | 3.0 | 7.0 | 0.00 | 0.00 | 0.00 | 64 | 1017.2 |
| 20260904062512 | 79 | 22 | 3.0 | 8.0 | 0.00 | 0.00 | 0.00 | 65 | 1017.2 |
| 20260904062019 | 79 | 49 | 2.0 | 5.0 | 0.00 | 0.00 | 0.00 | 65 | 1017.3 |
| 20260904061519 | 78 | 291 | 1.0 | 5.0 | 0.00 | 0.00 | 0.00 | 66 | 1017.2 |
| 20260904060510 | 77 | 291 | 1.0 | 3.0 | 0.00 | 0.00 | 0.00 | 67 | 1017.3 |
| 20260904060019 | 77 | 287 | 0.0 | 3.0 | 0.00 | 0.00 | 0.00 | 68 | 1017.3 |
| 20260904055019 | 76 | 280 | 1.0 | 3.0 | 0.00 | 0.00 | 0.00 | 69 | 1017.2 |
| 20260904054521 | 75 | 256 | 0.0 | 1.0 | 0.00 | 0.00 | 0.00 | 70 | 1017.1 |
| 20260904054018 | 75 | 255 | 0.0 | 2.0 | 0.00 | 0.00 | 0.00 | 71 | 1017.1 |
| 20260904053517 | 74 | 33 | 1.0 | 3.0 | 0.00 | 0.00 | 0.00 | 71 | 1017.1 |
| 20260904053018 | 74 | 263 | 1.0 | 5.0 | 0.00 | 0.00 | 0.00 | 72 | 1017.1 |
| 20260904052017 | 73 | 229 | 0.0 | 3.0 | 0.00 | 0.00 | 0.00 | 72 | 1017.0 |
| 20260904051518 | 73 | 270 | 1.0 | 3.0 | 0.00 | 0.00 | 0.00 | 73 | 1017.0 |